When you browse on this site, cookies collect data to enhance your experience and personalize the content and advertising you see.
Visit our Privacy Policy to learn more. By continuing to use the site, you agree to this use of cookies and data.
  • In Germany
  • List of Countries
  • For 7 days
  • Water Temperature
  • Weather Map
  • Weather Widgets
  • user-avatar
    Login

    Hourly Weather Kakvinskie Pechi

    Today, 15 October, Tuesday

    Time Temperature Precipitation Wind Pressure Humidity
    00:00 +4°C° 0.1 mm 3 mps 724 mmHg 88%
    01:00 +4°C° 0.1 mm 3 mps 725 mmHg 86%
    02:00 +3°C° 0 mm 3 mps 725 mmHg 87%
    03:00 +4°C° 0 mm 2 mps 725 mmHg 88%
    04:00 +4°C° 0 mm 2 mps 726 mmHg 89%
    05:00 +4°C° 0.1 mm 2 mps 726 mmHg 90%
    06:00 +4°C° 0.1 mm 2 mps 726 mmHg 92%
    07:00 +4°C° 0.1 mm 2 mps 726 mmHg 93%
    08:00 +4°C° 0.1 mm 2 mps 726 mmHg 91%
    09:00 +3°C° 0.1 mm 3 mps 726 mmHg 89%
    10:00 +3°C° 0.1 mm 3 mps 727 mmHg 88%
    11:00 +3°C° 0.1 mm 3 mps 727 mmHg 88%
    12:00 +3°C° 0.1 mm 3 mps 727 mmHg 89%
    13:00 +3°C° 0.1 mm 3 mps 727 mmHg 89%
    14:00 +3°C° 0.1 mm 3 mps 727 mmHg 87%
    15:00 +2°C° 0.1 mm 3 mps 727 mmHg 85%
    16:00 +2°C° 0.1 mm 3 mps 727 mmHg 83%
    17:00 +2°C° 0 mm 3 mps 728 mmHg 84%
    18:00 +1°C° 0 mm 3 mps 728 mmHg 86%
    19:00 0°C° 0 mm 3 mps 728 mmHg 87%
    20:00 0°C° 0 mm 3 mps 728 mmHg 87%
    21:00 0°C° 0 mm 3 mps 728 mmHg 87%
    22:00 +1°C° 0 mm 2 mps 729 mmHg 87%
    23:00 +1°C° 0 mm 2 mps 729 mmHg 87%

    Tomorrow, 16 October, Wednesday

    Time Temperature Precipitation Wind Pressure Humidity
    00:00 +1°C° 0 mm 2 mps 729 mmHg 88%
    01:00 +1°C° 0 mm 2 mps 729 mmHg 89%
    02:00 +1°C° 0 mm 2 mps 730 mmHg 88%
    03:00 +1°C° 0 mm 2 mps 730 mmHg 88%
    04:00 +1°C° 0 mm 2 mps 731 mmHg 87%
    05:00 +1°C° 0 mm 2 mps 731 mmHg 86%
    06:00 0°C° 0 mm 3 mps 732 mmHg 85%
    07:00 0°C° 0 mm 3 mps 732 mmHg 83%
    08:00 0°C° 0 mm 3 mps 732 mmHg 79%
    09:00 +1°C° 0 mm 3 mps 733 mmHg 75%
    10:00 +1°C° 0 mm 4 mps 733 mmHg 71%
    11:00 +1°C° 0 mm 4 mps 734 mmHg 70%
    12:00 +1°C° 0 mm 4 mps 734 mmHg 69%
    13:00 +1°C° 0 mm 4 mps 735 mmHg 68%
    14:00 +1°C° 0 mm 4 mps 735 mmHg 71%
    15:00 +1°C° 0 mm 4 mps 736 mmHg 73%
    16:00 +1°C° 0 mm 3 mps 736 mmHg 75%
    17:00 +1°C° 0 mm 3 mps 736 mmHg 78%
    18:00 0°C° 0 mm 3 mps 737 mmHg 80%
    19:00 -1°C° 0 mm 3 mps 737 mmHg 82%
    20:00 -1°C° 0 mm 3 mps 737 mmHg 82%
    21:00 -1°C° 0 mm 3 mps 738 mmHg 82%
    22:00 -1°C° 0 mm 3 mps 738 mmHg 82%
    23:00 -1°C° 0 mm 3 mps 738 mmHg 83%

    Day after tomorrow, 17 October, Thursday

    Time Temperature Precipitation Wind Pressure Humidity
    00:00 -1°C° 0 mm 3 mps 739 mmHg 84%
    01:00 -2°C° 0 mm 2 mps 739 mmHg 85%
    02:00 -2°C° 0 mm 2 mps 739 mmHg 85%
    03:00 -2°C° 0 mm 2 mps 740 mmHg 84%
    04:00 -2°C° 0 mm 2 mps 740 mmHg 83%
    05:00 -2°C° 0 mm 2 mps 740 mmHg 83%
    06:00 -2°C° 0 mm 2 mps 740 mmHg 83%
    07:00 -2°C° 0 mm 2 mps 740 mmHg 83%
    08:00 -2°C° 0 mm 2 mps 740 mmHg 78%
    09:00 -1°C° 0 mm 2 mps 740 mmHg 72%
    10:00 +1°C° 0 mm 2 mps 740 mmHg 67%
    11:00 +1°C° 0 mm 2 mps 740 mmHg 66%
    12:00 +2°C° 0 mm 1 mps 740 mmHg 65%
    13:00 +3°C° 0 mm 1 mps 740 mmHg 64%
    14:00 +2°C° 0 mm 1 mps 739 mmHg 67%
    15:00 +2°C° 0 mm 1 mps 739 mmHg 71%
    16:00 0°C° 0 mm 0 mps 739 mmHg 75%
    17:00 0°C° 0 mm 0 mps 739 mmHg 80%
    18:00 -1°C° 0 mm 0 mps 738 mmHg 84%
    19:00 0°C° 0 mm 1 mps 738 mmHg 89%
    20:00 0°C° 0.2 mm 1 mps 737 mmHg 91%
    21:00 0°C° 0.2 mm 1 mps 737 mmHg 94%
    22:00 0°C° 0.2 mm 1 mps 737 mmHg 96%
    23:00 0°C° 0.4 mm 1 mps 736 mmHg 96%

    18 October, Friday

    Time Temperature Precipitation Wind Pressure Humidity
    00:00 -2°C° 0.4 mm 2 mps 736 mmHg 96%
    01:00 -3°C° 0.4 mm 2 mps 735 mmHg 96%
    02:00 -4°C° 0.6 mm 3 mps 735 mmHg 95%
    03:00 -4°C° 0.6 mm 3 mps 735 mmHg 95%
    04:00 -4°C° 0.6 mm 4 mps 735 mmHg 95%
    05:00 -5°C° 0.4 mm 4 mps 736 mmHg 93%
    06:00 -5°C° 0.4 mm 4 mps 736 mmHg 91%
    07:00 -7°C° 0.4 mm 4 mps 737 mmHg 89%
    08:00 -7°C° 0.1 mm 4 mps 737 mmHg 85%
    09:00 -5°C° 0.1 mm 4 mps 738 mmHg 81%
    10:00 -5°C° 0.1 mm 4 mps 739 mmHg 78%
    11:00 -5°C° 0 mm 4 mps 740 mmHg 75%
    12:00 -4°C° 0 mm 4 mps 740 mmHg 71%
    13:00 -4°C° 0 mm 4 mps 741 mmHg 68%
    14:00 -4°C° 0 mm 3 mps 741 mmHg 70%
    15:00 -5°C° 0 mm 3 mps 742 mmHg 72%
    16:00 -5°C° 0 mm 3 mps 743 mmHg 74%
    17:00 -5°C° 0 mm 2 mps 743 mmHg 78%
    18:00 -6°C° 0 mm 2 mps 744 mmHg 82%
    19:00 -4°C° 0 mm 1 mps 744 mmHg 87%
    20:00 -6°C° 0 mm 1 mps 745 mmHg 87%
    21:00 -6°C° 0 mm 1 mps 745 mmHg 88%
    22:00 -6°C° 0 mm 1 mps 746 mmHg 89%
    23:00 -7°C° 0 mm 1 mps 746 mmHg 89%

    19 October, Saturday

    Time Temperature Precipitation Wind Pressure Humidity
    00:00 -7°C° 0 mm 1 mps 746 mmHg 89%
    01:00 -7°C° 0 mm 1 mps 746 mmHg 88%
    02:00 -7°C° 0 mm 1 mps 746 mmHg 88%
    03:00 -7°C° 0 mm 1 mps 746 mmHg 87%
    04:00 -7°C° 0 mm 1 mps 747 mmHg 87%
    05:00 -7°C° 0 mm 1 mps 747 mmHg 87%
    06:00 -7°C° 0 mm 1 mps 747 mmHg 86%
    07:00 -7°C° 0 mm 1 mps 747 mmHg 86%
    08:00 -6°C° 0 mm 1 mps 747 mmHg 80%
    09:00 -5°C° 0 mm 2 mps 748 mmHg 74%
    10:00 -3°C° 0 mm 2 mps 748 mmHg 68%
    11:00 -2°C° 0 mm 2 mps 748 mmHg 65%
    12:00 -2°C° 0 mm 2 mps 747 mmHg 63%
    13:00 -1°C° 0 mm 2 mps 747 mmHg 61%
    14:00 -1°C° 0 mm 2 mps 747 mmHg 65%
    15:00 -2°C° 0 mm 2 mps 747 mmHg 70%
    16:00 -3°C° 0 mm 2 mps 747 mmHg 75%
    17:00 -4°C° 0 mm 2 mps 747 mmHg 79%
    18:00 -5°C° 0 mm 2 mps 746 mmHg 84%
    19:00 -6°C° 0 mm 2 mps 746 mmHg 88%
    20:00 -6°C° 0 mm 2 mps 746 mmHg 88%
    21:00 -6°C° 0 mm 2 mps 746 mmHg 88%
    22:00 -5°C° 0 mm 2 mps 746 mmHg 87%
    23:00 -5°C° 0 mm 2 mps 746 mmHg 86%

    20 October, Sunday

    Time Temperature Precipitation Wind Pressure Humidity
    00:00 -6°C° 0 mm 3 mps 746 mmHg 85%
    01:00 -6°C° 0 mm 3 mps 745 mmHg 84%
    02:00 -6°C° 0 mm 3 mps 745 mmHg 84%
    03:00 -6°C° 0 mm 3 mps 745 mmHg 83%
    04:00 -6°C° 0 mm 3 mps 745 mmHg 83%
    05:00 -4°C° 0 mm 2 mps 745 mmHg 83%
    06:00 -4°C° 0 mm 2 mps 745 mmHg 83%
    07:00 -4°C° 0 mm 2 mps 745 mmHg 83%
    08:00 -3°C° 0 mm 2 mps 745 mmHg 81%
    09:00 -2°C° 0 mm 3 mps 745 mmHg 78%
    10:00 -2°C° 0 mm 3 mps 745 mmHg 76%
    11:00 -1°C° 0 mm 3 mps 745 mmHg 75%
    12:00 -1°C° 0 mm 3 mps 745 mmHg 74%
    13:00 0°C° 0 mm 3 mps 744 mmHg 73%
    14:00 -1°C° 0 mm 3 mps 744 mmHg 76%
    15:00 -1°C° 0 mm 3 mps 744 mmHg 79%
    16:00 -1°C° 0 mm 2 mps 744 mmHg 82%
    17:00 -2°C° 0 mm 2 mps 744 mmHg 84%
    18:00 -2°C° 0 mm 2 mps 744 mmHg 86%
    19:00 -2°C° 0 mm 2 mps 744 mmHg 89%
    20:00 -2°C° 0 mm 2 mps 744 mmHg 89%
    21:00 -2°C° 0 mm 2 mps 743 mmHg 90%
    22:00 -2°C° 0 mm 2 mps 743 mmHg 91%
    23:00 -1°C° 0 mm 2 mps 743 mmHg 91%
    Show more